Regional Weather Roundup
Issued by NWS

Home | Current Version | Previous Version | Graphics & Text | Print | Product List | Glossary On
Versions: 1 2 3 4 5 6 7 8 9 10 11 12 13 14 15 16 17 18 19 20 21 22 23 24 25 26 27 28 29 30 31 32 33 34 35 36 37 38 39 40 41 42 43 44 45 46 47 48 49 50
000
ASUS43 KLMK 260210
RWRKY
KENTUCKY REGIONAL WEATHER ROUNDUP
NATIONAL WEATHER SERVICE LOUISVILLE KY
900 PM EST TUE NOV 25 2014

NOTE "FAIR" INDICATES FEW OR NO CLOUDS BELOW 12,000 FEET
WITH NO SIGNIFICANT WEATHER AND/OR OBSTRUCTIONS TO VISIBILITY.

KYZ001>023-026-027-061>063-070>075-260300-
WESTERN AND SOUTH CENTRAL KENTUCKY

CITY           SKY/WX    TMP DP  RH WIND       PRES   REMARKS
PADUCAH        PTCLDY    31  26  82 CALM      30.19S
HENDERSON      MOCLDY    32  25  74 N3        30.21S
OWENSBORO      MOCLDY    34  28  79 N5        30.21R WCI  30
HOPKINSVILLE   CLOUDY    40  26  57 N8        30.17F WCI  34
BOWLING GREEN  MOCLDY    40  26  57 CALM      30.17S
GLASGOW        CLOUDY    37  29  74 CALM      30.16S
$$

KYZ024-025-028>034-038-045-046-053-260300-
NORTH CENTRAL KENTUCKY

CITY           SKY/WX    TMP DP  RH WIND       PRES   REMARKS
LOUISVILLE/SDF CLOUDY    37  28  70 NW9       30.19R WCI  30
LOUISVILLE/LOU MOCLDY    37  27  67 NW6       30.20R WCI  32
FORT KNOX      CLOUDY    35  28  75 NW8       30.17R WCI  29
$$

KYZ035>037-039>044-047>052-055>060-089>105-260300-
NORTHEAST KENTUCKY

CITY           SKY/WX    TMP DP  RH WIND       PRES   REMARKS
LEXINGTON      CLOUDY    37  27  67 N5        30.16R WCI  33
COVINGTON      CLOUDY    34  26  72 N9        30.17R WCI  27
FRANKFORT      CLOUDY    36  28  73 CALM      30.15R
$$

KYZ054-064>069-076>088-106>120-260300-
SOUTHEAST KENTUCKY

CITY           SKY/WX    TMP DP  RH WIND       PRES   REMARKS
JACKSON        MOCLDY    42  27  55 VRB5      30.13R
LONDON         MOCLDY    44  28  53 N6        30.12F
SOMERSET       CLOUDY    39  28  65 NE6       30.15S WCI  35
MIDDLESBORO    CLOUDY    44  32  62 CALM      30.10F
MONTICELLO     CLOUDY    42  28  58 CALM      30.17S
$$




USA.gov is the U.S. government's official web portal to all federal, state and local government web resources and services.